GW4718 Weather Reports


time (UTC)temp
F
wind
direction
speed
knots
gust
knots
rain 1hr
in
rain 24hr
in
rain mn
in
humidity
%
barometer
mb
20260902232843 79 212 0.9 1.7 0.00 0.00 0.00 84 1021.9
20260902232338 79 107 0.9 1.7 0.00 0.00 0.00 81 1021.8
20260902231833 79 75 0.9 0.9 0.00 0.00 0.00 83 1021.8
20260902231328 80 208 0.0 1.7 0.00 0.00 0.00 79 1021.8
20260902230823 82 95 0.0 0.0 0.00 0.00 0.00 78 1021.8
20260902230322 82 219 0.0 0.9 0.00 0.00 0.00 76 1021.8
20260902225822 84 183 0.0 0.9 0.00 0.00 0.00 74 1021.7
20260902225317 87 272 0.9 1.7 0.00 0.00 0.00 62 1021.7
20260902224815 87 151 1.7 1.7 0.00 0.00 0.00 61 1021.8
20260902224310 86 152 1.7 2.6 0.00 0.00 0.00 61 1021.8
20260902223808 88 129 0.9 1.7 0.00 0.00 0.00 62 1021.9
20260902223307 88 59 1.7 5.2 0.00 0.00 0.00 58 1021.6
20260902222801 88 119 1.7 2.6 0.00 0.00 0.00 58 1021.5
20260902222300 88 84 2.6 3.5 0.00 0.00 0.00 58 1021.6
20260902221754 91 132 0.9 1.7 0.00 0.00 0.00 61 1021.6
20260902221254 90 280 0.9 2.6 0.00 0.00 0.00 57 1021.6
20260902220750 91 218 0.9 2.6 0.00 0.00 0.00 58 1021.5
20260902220249 92 183 0.9 0.9 0.00 0.00 0.00 56 1021.5
20260902215745 91 249 0.9 2.6 0.00 0.00 0.00 55 1021.5
20260902215240 91 244 0.9 1.7 0.00 0.00 0.00 54 1021.5
20260902214736 90 287 0.0 2.6 0.00 0.00 0.00 57 1021.4
20260902214234 92 247 1.7 2.6 0.00 0.00 0.00 52 1021.5
20260902213725 92 217 0.0 1.7 0.00 0.00 0.00 58 1021.4
20260902213224 91 67 0.0 1.7 0.00 0.00 0.00 56 1021.4
20260902212724 91 198 1.7 3.5 0.00 0.00 0.00 54 1021.6
20260902212220 92 244 2.6 6.1 0.00 0.00 0.00 55 1021.5
20260902211716 92 229 1.7 2.6 0.00 0.00 0.00 54 1021.6
20260902211211 91 179 1.7 2.6 0.00 0.00 0.00 58 1021.6
20260902210706 91 244 1.7 2.6 0.00 0.00 0.00 54 1021.4
20260902210202 91 206 2.6 3.5 0.00 0.00 0.00 57 1021.5
20260902205659 91 162 6.1 7.8 0.00 0.00 0.00 56 1021.7
20260902205154 91 196 2.6 6.1 0.00 0.00 0.00 58 1021.7
20260902204649 91 201 3.5 7.0 0.00 0.00 0.00 53 1021.7
20260902204144 91 212 1.7 6.1 0.00 0.00 0.00 53 1021.5
20260902203640 92 194 2.6 3.5 0.00 0.00 0.00 54 1021.5
20260902203139 91 229 0.9 2.6 0.00 0.00 0.00 54 1021.7
20260902202635 92 221 3.5 5.2 0.00 0.00 0.00 52 1021.6
20260902202131 92 172 1.7 3.5 0.00 0.00 0.00 56 1021.6
20260902201627 92 144 0.9 2.6 0.00 0.00 0.00 55 1021.5
20260902201121 92 173 6.1 7.0 0.00 0.00 0.00 52 1021.6
20260902200616 90 206 1.7 2.6 0.00 0.00 0.00 57 1021.6
20260902200112 89 187 0.0 1.7 0.00 0.00 0.00 59 1021.5
20260902195607 89 181 0.0 2.6 0.00 0.00 0.00 58 1021.5
20260902195106 90 178 1.7 2.6 0.00 0.00 0.00 56 1021.6
20260902194606 90 181 1.7 1.7 0.00 0.00 0.00 59 1021.7
20260902194101 91 255 1.7 2.6 0.00 0.00 0.00 54 1021.8
20260902193557 92 298 0.0 0.9 0.00 0.00 0.00 52 1021.7
20260902193056 90 76 1.7 1.7 0.00 0.00 0.00 60 1021.7
20260902192555 87 115 2.6 3.5 0.00 0.00 0.00 63 1021.8
20260902192054 88 112 2.6 3.5 0.00 0.00 0.00 63 1022.1
20260902191549 89 118 0.0 0.9 0.00 0.00 0.00 66 1021.8
20260902191043 90 250 0.0 1.7 0.00 0.00 0.00 52 1022.2
20260902190539 91 135 1.7 5.2 0.00 0.00 0.00 55 1021.8
20260902190034 92 227 2.6 6.1 0.00 0.00 0.00 52 1022.1
20260902185530 92 221 0.0 1.7 0.00 0.00 0.00 51 1022.3
20260902185026 91 137 1.7 3.5 0.00 0.00 0.00 53 1022.1
20260902184521 93 245 2.6 5.2 0.00 0.00 0.00 50 1022.1
20260902184016 92 166 0.0 0.9 0.00 0.00 0.00 50 1022.4
20260902183512 91 79 0.9 1.7 0.00 0.00 0.00 51 1022.3
20260902183009 92 222 2.6 2.6 0.00 0.00 0.00 56 1022.6
20260902182504 91 79 1.7 1.7 0.00 0.00 0.00 57 1022.6
20260902182000 90 125 0.0 1.7 0.00 0.00 0.00 57 1022.6
20260902181455 91 53 0.0 0.9 0.00 0.00 0.00 54 1022.6
20260902180950 91 179 0.0 1.7 0.00 0.00 0.00 56 1022.7
20260902180445 90 32 0.0 1.7 0.00 0.00 0.00 56 1022.7
20260902175941 89 337 1.7 2.6 0.00 0.00 0.00 55 1022.8
20260902175441 89 98 2.6 2.6 0.00 0.00 0.00 63 1022.9
20260902174937 92 101 0.0 1.7 0.00 0.00 0.00 55 1022.9
20260902174434 94 29 0.0 0.9 0.00 0.00 0.00 48 1022.8
20260902173929 94 195 0.0 1.7 0.00 0.00 0.00 51 1023.2
20260902173428 93 36 0.0 2.6 0.00 0.00 0.00 60 1023.0
20260902172924 92 54 2.6 2.6 0.00 0.00 0.00 53 1023.1
20260902172423 92 191 0.9 2.6 0.00 0.00 0.00 52 1023.1
20260902171918 91 162 1.7 1.7 0.00 0.00 0.00 51 1023.2
20260902171414 93 265 4.3 6.1 0.00 0.00 0.00 55 1023.3
20260902170910 92 4 0.0 0.9 0.00 0.00 0.00 54 1023.0
20260902170405 90 325 0.9 2.6 0.00 0.00 0.00 54 1023.3
20260902165900 92 12 0.0 2.6 0.00 0.00 0.00 55 1023.2
20260902165359 92 69 0.9 1.7 0.00 0.00 0.00 56 1023.1
20260902164854 91 111 0.0 2.6 0.00 0.00 0.00 54 1023.1
20260902164349 91 88 2.6 3.5 0.00 0.00 0.00 60 1023.5
20260902163848 90 100 0.0 1.7 0.00 0.00 0.00 56 1023.6
20260902163343 92 84 2.6 2.6 0.00 0.00 0.00 54 1023.5
20260902162842 92 246 0.0 1.7 0.00 0.00 0.00 54 1023.5
20260902162337 91 77 0.0 0.9 0.00 0.00 0.00 61 1023.5
20260902161836 91 143 0.0 0.9 0.00 0.00 0.00 54 1023.6
20260902161332 90 220 1.7 1.7 0.00 0.00 0.00 58 1023.5
20260902160828 89 87 1.7 2.6 0.00 0.00 0.00 58 1023.9
20260902160323 89 117 0.9 2.6 0.00 0.00 0.00 57 1023.7
20260902155821 90 107 0.0 0.0 0.00 0.00 0.00 67 1023.6
20260902155320 88 119 0.9 1.7 0.00 0.00 0.00 64 1023.6
20260902154815 88 67 0.9 2.6 0.00 0.00 0.00 62 1023.7
20260902154311 87 43 2.6 2.6 0.00 0.00 0.00 67 1023.7
20260902153809 87 95 1.7 2.6 0.00 0.00 0.00 73 1023.6
20260902153304 87 97 0.0 2.6 0.00 0.00 0.00 74 1023.6
20260902152800 86 111 0.0 0.0 0.00 0.00 0.00 69 1023.6
20260902152256 85 102 1.7 2.6 0.00 0.00 0.00 74 1024.0
20260902151756 87 69 0.9 1.7 0.00 0.00 0.00 69 1024.0
20260902151252 85 332 0.0 0.0 0.00 0.00 0.00 71 1023.7
20260902150752 85 112 1.7 2.6 0.00 0.00 0.00 74 1023.9
20260902150248 84 99 0.9 1.7 0.00 0.00 0.00 75 1024.1
20260902145747 83 106 1.7 2.6 0.00 0.00 0.00 81 1023.9
20260902145243 84 81 1.7 1.7 0.00 0.00 0.00 77 1024.0
20260902144738 83 95 0.0 1.7 0.00 0.00 0.00 77 1024.2
20260902144234 85 108 1.7 1.7 0.00 0.00 0.00 78 1024.1
20260902143728 83 81 0.0 0.9 0.00 0.00 0.00 77 1024.2
20260902143224 82 80 1.7 1.7 0.00 0.00 0.00 78 1024.3
20260902142719 81 111 0.9 0.9 0.00 0.00 0.00 83 1024.4
20260902142215 80 112 0.9 1.7 0.00 0.00 0.00 83 1024.2
20260902141715 80 53 1.7 1.7 0.00 0.00 0.00 82 1024.3
20260902141211 79 68 0.9 1.7 0.00 0.00 0.00 81 1024.0
20260902140706 80 54 0.9 1.7 0.00 0.00 0.00 83 1024.2
20260902140200 79 17 0.0 0.9 0.00 0.00 0.00 84 1024.0
20260902135659 77 189 0.0 0.0 0.00 0.00 0.00 86 1024.2
20260902135155 76 114 0.9 1.7 0.00 0.00 0.00 89 1024.2
20260902134650 76 179 0.9 0.9 0.00 0.00 0.00 89 1024.3
20260902134150 75 226 0.9 1.7 0.00 0.00 0.00 90 1024.2
20260902133645 75 183 0.0 0.9 0.00 0.00 0.00 88 1024.2
20260902133139 75 191 0.9 0.9 0.00 0.00 0.00 89 1024.1
20260902132635 76 185 1.7 2.6 0.00 0.00 0.00 87 1024.1
20260902132130 76 197 1.7 2.6 0.00 0.00 0.00 87 1024.1
20260902131626 75 121 0.0 1.7 0.00 0.00 0.00 86 1024.1
20260902131121 74 206 0.0 0.9 0.00 0.00 0.00 91 1024.3
20260902130617 74 228 0.9 1.7 0.00 0.00 0.00 89 1024.2
20260902130117 74 221 0.0 0.9 0.00 0.00 0.00 89 1024.2
20260902125613 74 139 0.9 1.7 0.00 0.00 0.00 89 1024.0
20260902125108 74 245 0.0 1.7 0.00 0.00 0.00 89 1023.9
20260902124605 73 256 0.9 2.6 0.00 0.00 0.00 91 1024.2
20260902124105 72 240 0.9 1.7 0.00 0.00 0.00 92 1024.3
20260902123600 72 195 0.0 0.9 0.00 0.00 0.00 94 1024.0
20260902123056 71 256 0.9 1.7 0.00 0.00 0.00 94 1024.1
20260902122555 71 183 1.7 6.1 0.00 0.00 0.00 94 1024.1
20260902122051 69 119 1.7 3.5 0.00 0.00 0.00 96 1023.9
20260902121546 69 117 0.0 0.0 0.00 0.00 0.00 98 1023.9
20260902121040 68 343 0.0 0.0 0.00 0.00 0.00 99 1024.0
20260902120536 68 71 0.0 1.7 0.00 0.00 0.00 99 1023.9
20260902120032 67 68 2.6 2.6 0.00 0.00 0.00 99 1024.0
20260902115532 67 55 1.7 1.7 0.00 0.00 0.00 99 1023.9
20260902115029 67 196 0.0 0.9 0.00 0.00 0.00 99 1024.1
20260902114525 67 68 1.7 1.7 0.00 0.00 0.00 99 1023.9
20260902114024 67 71 0.0 0.9 0.00 0.00 0.00 99 1024.0
20260902113520 67 227 0.0 0.9 0.00 0.00 0.00 99 1024.1
20260902113015 66 81 0.0 0.9 0.00 0.00 0.00 99 1024.0
20260902112510 66 83 0.0 0.9 0.00 0.00 0.00 99 1024.1
20260902112007 67 90 0.0 0.0 0.00 0.00 0.00 99 1024.0
20260902111458 67 90 0.0 0.0 0.00 0.00 0.00 99 1024.0
20260902110953 67 112 0.0 0.0 0.00 0.00 0.00 99 1024.1
20260902110448 67 90 0.0 0.9 0.00 0.00 0.00 99 1024.1
20260902105943 67 57 0.0 0.0 0.00 0.00 0.00 99 1024.1
20260902105439 67 58 0.0 0.9 0.00 0.00 0.00 99 1023.9
20260902104933 67 290 0.0 0.9 0.00 0.00 0.00 99 1023.9
20260902104429 67 233 0.0 0.0 0.00 0.00 0.00 99 1023.9
20260902103928 68 227 0.9 1.7 0.00 0.00 0.00 98 1024.0
20260902103424 68 267 0.0 1.7 0.00 0.00 0.00 97 1024.0
20260902102919 69 228 1.7 3.5 0.00 0.00 0.00 96 1023.9
20260902102416 68 242 1.7 3.5 0.00 0.00 0.00 98 1023.9
20260902101912 68 227 0.9 1.7 0.00 0.00 0.00 98 1023.9
20260902101406 68 257 1.7 3.5 0.00 0.00 0.00 99 1023.7
20260902100906 67 231 0.9 0.9 0.00 0.00 0.00 99 1023.9
20260902100359 68 162 0.0 0.0 0.00 0.00 0.00 99 1023.7
20260902095854 68 229 0.9 1.7 0.00 0.00 0.00 99 1023.9
20260902095348 67 273 0.0 0.9 0.00 0.00 0.00 99 1023.6
20260902094843 68 210 0.0 0.9 0.00 0.00 0.00 99 1023.7
20260902094340 68 251 0.9 1.7 0.00 0.00 0.00 99 1023.9
20260902093838 68 244 0.9 1.7 0.00 0.00 0.00 99 1023.7
20260902093334 68 273 0.9 1.7 0.00 0.00 0.00 98 1023.9
20260902092832 68 253 0.9 2.6 0.00 0.00 0.00 98 1023.9
20260902092328 68 255 0.9 2.6 0.00 0.00 0.00 98 1023.7
20260902091822 68 238 0.9 2.6 0.00 0.00 0.00 98 1023.9
20260902091318 69 176 3.5 5.2 0.00 0.00 0.00 97 1023.7
20260902090815 69 158 0.0 0.0 0.00 0.00 0.00 98 1023.9
20260902090314 69 204 0.0 0.9 0.00 0.00 0.00 97 1024.1
20260902085813 69 211 1.7 2.6 0.00 0.00 0.00 97 1023.9
20260902085308 69 173 1.7 2.6 0.00 0.00 0.00 98 1024.0
20260902084804 68 126 0.0 0.0 0.00 0.00 0.00 99 1024.0
20260902084300 68 105 0.0 1.7 0.00 0.00 0.00 99 1023.6
20260902083755 68 65 0.9 1.7 0.00 0.00 0.00 99 1023.7
20260902083250 68 7 0.0 0.0 0.00 0.00 0.00 99 1023.9
20260902082745 68 50 1.7 2.6 0.00 0.00 0.00 99 1023.6
20260902082242 68 32 0.9 1.7 0.00 0.00 0.00 98 1023.6
20260902081737 69 157 0.9 1.7 0.00 0.00 0.00 98 1023.7
20260902081232 69 264 1.7 1.7 0.00 0.00 0.00 98 1023.6
20260902080727 69 197 0.9 0.9 0.00 0.00 0.00 98 1023.9
20260902080225 68 203 0.0 1.7 0.00 0.00 0.00 98 1023.7
20260902075723 69 165 0.0 0.0 0.00 0.00 0.00 98 1023.9
20260902075220 69 37 0.0 0.0 0.00 0.00 0.00 98 1023.6
20260902074719 69 58 1.7 2.6 0.00 0.00 0.00 98 1023.6
20260902074215 69 60 0.9 1.7 0.00 0.00 0.00 98 1023.6
20260902073710 69 250 1.7 2.6 0.00 0.00 0.00 98 1023.6
20260902073206 69 128 0.0 0.0 0.00 0.00 0.00 98 1023.4
20260902072702 69 70 0.0 0.0 0.00 0.00 0.00 98 1023.6
20260902072158 69 49 0.9 1.7 0.00 0.00 0.00 98 1023.6
20260902071654 69 114 0.0 0.9 0.00 0.00 0.00 98 1023.6
20260902071149 69 59 1.7 2.6 0.00 0.00 0.00 98 1023.5
20260902070645 69 83 0.0 0.0 0.00 0.00 0.00 97 1023.5
20260902070144 70 69 0.9 1.7 0.00 0.00 0.00 97 1023.4
20260902065643 69 226 1.7 2.6 0.00 0.00 0.00 97 1023.4
20260902065139 69 100 0.9 1.7 0.00 0.00 0.00 97 1023.4
20260902064634 70 34 0.0 0.0 0.00 0.00 0.00 97 1023.4
20260902064130 70 90 0.0 0.0 0.00 0.00 0.00 97 1023.2
20260902063625 70 87 0.0 0.0 0.00 0.00 0.00 96 1023.4
20260902063120 70 302 0.0 0.0 0.00 0.00 0.00 97 1023.5
20260902062619 70 144 0.9 1.7 0.00 0.00 0.00 96 1023.5
20260902062115 70 250 1.7 1.7 0.00 0.00 0.00 97 1023.4
20260902061609 70 104 0.0 1.7 0.00 0.00 0.00 96 1023.3
20260902061104 70 349 1.7 1.7 0.00 0.00 0.00 96 1023.4
20260902060600 70 166 0.9 2.6 0.00 0.00 0.00 96 1023.5
20260902060057 70 228 0.9 2.6 0.00 0.00 0.00 96 1023.4
20260902055552 70 249 1.7 1.7 0.00 0.00 0.00 96 1023.6
20260902055047 70 102 0.9 0.9 0.00 0.00 0.00 96 1023.4
20260902054542 70 164 0.0 0.9 0.00 0.00 0.00 97 1023.5
20260902054038 70 232 0.0 1.7 0.00 0.00 0.00 97 1023.6
20260902053532 69 224 0.9 0.9 0.00 0.00 0.00 97 1023.4
20260902053027 69 200 0.9 2.6 0.00 0.00 0.00 97 1023.3
20260902052522 69 243 1.7 1.7 0.00 0.00 0.00 97 1023.2
20260902052018 69 205 0.9 0.9 0.00 0.00 0.00 97 1023.2
20260902051517 69 91 1.7 2.6 0.00 0.00 0.00 97 1023.2
20260902051016 70 285 0.0 0.0 0.00 0.00 0.00 97 1023.0
20260902050510 70 273 0.0 0.9 0.00 0.00 0.00 96 1023.0
20260902050008 70 235 1.7 2.6 0.00 0.00 0.00 96 1023.0
20260902045500 70 159 0.0 0.9 0.00 0.00 0.00 97 1023.2
20260902044957 69 120 0.0 0.0 0.00 0.00 0.00 98 1023.3
20260902044452 69 251 0.0 0.0 0.00 0.00 0.00 97 1023.0
20260902043947 70 129 0.0 0.9 0.00 0.00 0.00 97 1023.0
20260902043442 70 176 0.0 0.9 0.00 0.00 0.00 97 1023.0
20260902042937 70 221 0.0 0.9 0.00 0.00 0.00 97 1022.9
20260902042437 70 182 0.9 0.9 0.00 0.00 0.00 96 1022.9
20260902041932 70 240 0.0 1.7 0.00 0.00 0.00 95 1023.0
20260902041427 70 250 0.9 2.6 0.00 0.00 0.00 95 1022.8
20260902040926 70 198 0.0 2.6 0.00 0.00 0.00 97 1022.8
20260902040420 70 177 0.9 0.9 0.00 0.00 0.00 96 1022.9
20260902035920 70 219 0.0 0.0 0.00 0.00 0.00 95 1022.6
20260902035415 71 239 0.9 1.7 0.00 0.00 0.00 95 1022.7
20260902034914 71 225 0.9 1.7 0.00 0.00 0.00 95 1022.5
20260902034410 71 260 1.7 3.5 0.00 0.00 0.00 95 1022.4
20260902033908 70 227 0.0 0.9 0.00 0.00 0.00 96 1022.5
20260902033402 71 187 0.9 0.9 0.00 0.00 0.00 95 1022.4
20260902032901 72 253 1.7 3.5 0.00 0.00 0.00 94 1022.4
20260902032357 72 187 0.9 3.5 0.00 0.00 0.00 92 1022.6
20260902031857 71 192 0.9 1.7 0.00 0.00 0.00 94 1022.6
20260902031353 72 266 1.7 2.6 0.00 0.00 0.00 93 1022.5
20260902030843 72 197 0.9 0.9 0.00 0.00 0.00 92 1022.5
20260902030337 72 251 0.0 1.7 0.00 0.00 0.00 93 1022.6
20260902025836 72 226 3.5 3.5 0.00 0.00 0.00 93 1022.5
20260902025332 72 202 3.5 5.2 0.00 0.00 0.00 92 1022.6
20260902024832 73 242 2.6 3.5 0.00 0.00 0.00 92 1022.5
20260902024327 71 236 0.0 0.9 0.00 0.00 0.00 94 1022.8
20260902023822 71 209 0.9 1.7 0.00 0.00 0.00 95 1022.6
20260902023319 71 60 1.7 2.6 0.00 0.00 0.00 95 1022.8
20260902022817 71 288 0.9 2.6 0.00 0.00 0.00 95 1022.9
20260902022313 71 93 0.0 2.6 0.00 0.00 0.00 95 1022.7
20260902021809 71 252 2.6 3.5 0.00 0.00 0.00 95 1022.9
20260902021309 71 184 0.0 0.9 0.00 0.00 0.00 95 1022.7
20260902020804 71 198 0.0 0.9 0.00 0.00 0.00 95 1022.7
20260902020300 71 222 0.0 0.0 0.00 0.00 0.00 95 1022.8
20260902015755 71 130 0.0 0.9 0.00 0.00 0.00 95 1022.8
20260902015252 70 128 0.9 1.7 0.00 0.00 0.00 96 1022.8
20260902014747 71 247 0.0 0.9 0.00 0.00 0.00 95 1022.7
20260902014244 71 249 0.9 1.7 0.00 0.00 0.00 95 1022.8
20260902013742 71 57 0.0 0.0 0.00 0.00 0.00 95 1022.7
20260902013238 71 359 0.0 1.7 0.00 0.00 0.00 94 1022.6
20260902012733 72 238 0.0 0.0 0.00 0.00 0.00 93 1022.6
20260902012229 72 203 0.9 2.6 0.00 0.00 0.00 92 1022.6
20260902011724 73 245 0.9 0.9 0.00 0.00 0.00 92 1022.5
20260902011223 72 141 0.0 1.7 0.00 0.00 0.00 93 1022.3
20260902010717 73 228 1.7 1.7 0.00 0.00 0.00 91 1022.5
20260902010213 73 100 1.7 2.6 0.00 0.00 0.00 91 1022.3
20260902005711 73 161 0.9 1.7 0.00 0.00 0.00 91 1022.3
20260902005207 74 164 0.9 2.6 0.00 0.00 0.00 89 1022.1
20260902004707 73 151 0.0 1.7 0.00 0.00 0.00 91 1022.2
20260902004202 72 120 1.7 1.7 0.00 0.00 0.00 91 1022.1
20260902003658 72 166 0.9 1.7 0.00 0.00 0.00 93 1022.2
20260902003153 71 102 0.0 1.7 0.00 0.00 0.00 94 1021.9
20260902002648 72 239 0.9 0.9 0.00 0.00 0.00 94 1021.9
20260902002142 72 79 0.0 1.7 0.00 0.00 0.00 93 1021.9
20260902001637 72 71 0.0 0.0 0.00 0.00 0.00 94 1021.9
20260902001132 72 99 0.9 1.7 0.00 0.00 0.00 94 1021.7
20260902000627 72 42 0.9 1.7 0.00 0.00 0.00 92 1021.7
20260902000122 73 215 0.0 0.0 0.00 0.00 0.00 90 1021.8
20260901235622 74 148 0.9 1.7 0.00 0.00 0.00 90 1021.7
20260901235118 74 138 0.9 1.7 0.00 0.00 0.00 91 1021.7
20260901234616 75 107 1.7 1.7 0.00 0.00 0.00 86 1021.7
20260901234112 74 86 1.7 1.7 0.00 0.00 0.00 88 1021.8
20260901233607 74 167 0.0 0.0 0.00 0.00 0.00 89 1021.7
20260901233103 75 159 0.0 0.0 0.00 0.00 0.00 87 1021.6